FW9995 Weather Reports


time (UTC)temp
C
wind
direction
speed
KPH
gust
KPH
rain 1hr
cm
rain 24hr
cm
rain mn
cm
humidity
%
barometer
mb
20260906232530 36 117 3.2 19.3 0.00 0.00 0.00 42 1011.1
20260906232028 37 165 3.2 17.7 0.00 0.00 0.00 42 1011.2
20260906231546 37 118 0.0 16.1 0.00 0.00 0.00 42 1011.2
20260906231028 37 94 3.2 17.7 0.00 0.00 0.00 42 1011.2
20260906230530 37 173 4.8 17.7 0.00 0.00 0.00 41 1011.2
20260906230050 37 122 3.2 12.9 0.00 0.00 0.00 41 1011.2
20260906225528 37 128 4.8 12.9 0.00 0.00 0.00 40 1011.1
20260906225030 37 128 1.6 12.9 0.00 0.00 0.00 41 1011.2
20260906224545 37 111 4.8 12.9 0.00 0.00 0.00 40 1011.2
20260906224028 37 130 1.6 14.5 0.00 0.00 0.00 41 1011.2
20260906223530 37 124 3.2 17.7 0.00 0.00 0.00 41 1011.4
20260906223044 37 82 3.2 17.7 0.00 0.00 0.00 40 1011.3
20260906222528 37 0 0.0 14.5 0.00 0.00 0.00 41 1011.3
20260906222030 37 223 4.8 14.5 0.00 0.00 0.00 41 1011.3
20260906221556 37 188 3.2 12.9 0.00 0.00 0.00 40 1011.3
20260906221030 37 264 1.6 22.5 0.00 0.00 0.00 40 1011.3
20260906220533 37 308 4.8 22.5 0.00 0.00 0.00 40 1011.2
20260906220042 37 119 4.8 14.5 0.00 0.00 0.00 40 1011.2
20260906215531 37 160 4.8 14.5 0.00 0.00 0.00 40 1011.2
20260906215031 37 146 1.6 16.1 0.00 0.00 0.00 40 1011.3
20260906214549 37 86 3.2 16.1 0.00 0.00 0.00 40 1011.3
20260906214028 37 123 6.4 14.5 0.00 0.00 0.00 40 1011.3
20260906213531 37 51 3.2 12.9 0.00 0.00 0.00 40 1011.4
20260906213044 37 80 3.2 17.7 0.00 0.00 0.00 40 1011.4
20260906212527 37 202 4.8 17.7 0.00 0.00 0.00 39 1011.5
20260906212031 38 116 3.2 14.5 0.00 0.00 0.00 40 1011.6
20260906211545 38 126 1.6 9.7 0.00 0.00 0.00 40 1011.7
20260906211029 38 107 3.2 14.5 0.00 0.00 0.00 39 1011.8
20260906210531 38 279 1.6 16.1 0.00 0.00 0.00 41 1011.9
20260906210044 37 81 3.2 16.1 0.00 0.00 0.00 41 1011.9
20260906205528 37 161 3.2 14.5 0.00 0.00 0.00 42 1012.0
20260906205030 37 79 6.4 14.5 0.00 0.00 0.00 40 1012.1
20260906204600 37 41 3.2 14.5 0.00 0.00 0.00 40 1012.3
20260906204027 37 145 4.8 17.7 0.00 0.00 0.00 42 1012.3
20260906203529 37 225 3.2 17.7 0.00 0.00 0.00 41 1012.4
20260906203049 37 128 6.4 14.5 0.00 0.00 0.00 41 1012.4
20260906202531 37 169 3.2 16.1 0.00 0.00 0.00 42 1012.4
20260906202028 37 144 3.2 17.7 0.00 0.00 0.00 42 1012.5
20260906201600 37 105 6.4 17.7 0.00 0.00 0.00 42 1012.6
20260906201029 37 113 4.8 19.3 0.00 0.00 0.00 42 1012.7
20260906200530 37 153 4.8 19.3 0.00 0.00 0.00 43 1012.7
20260906200043 37 123 1.6 16.1 0.00 0.00 0.00 43 1012.7
20260906195529 37 76 3.2 16.1 0.00 0.00 0.00 43 1012.8
20260906195027 36 141 4.8 17.7 0.00 0.00 0.00 43 1012.9
20260906194542 37 167 6.4 17.7 0.00 0.00 0.00 43 1013.0
20260906194028 36 136 3.2 12.9 0.00 0.00 0.00 43 1012.9
20260906193528 36 217 6.4 19.3 0.00 0.00 0.00 45 1012.9
20260906193050 36 84 4.8 19.3 0.00 0.00 0.00 44 1013.0
20260906192528 36 216 4.8 14.5 0.00 0.00 0.00 45 1012.9
20260906192028 36 190 4.8 12.9 0.00 0.00 0.00 46 1013.0
20260906191548 36 111 3.2 17.7 0.00 0.00 0.00 46 1013.3
20260906191029 36 107 3.2 17.7 0.00 0.00 0.00 47 1013.2
20260906190528 36 130 4.8 12.9 0.00 0.00 0.00 46 1013.3
20260906190047 36 167 3.2 9.7 0.00 0.00 0.00 47 1013.5
20260906185528 36 167 3.2 14.5 0.00 0.00 0.00 46 1013.5
20260906185031 36 0 4.8 17.7 0.00 0.00 0.00 46 1013.5
20260906184544 36 38 3.2 17.7 0.00 0.00 0.00 47 1013.5
20260906184028 36 117 8.0 17.7 0.00 0.00 0.00 47 1013.5
20260906183531 36 163 6.4 17.7 0.00 0.00 0.00 48 1013.5
20260906183053 36 90 8.0 17.7 0.00 0.00 0.00 47 1013.7
20260906182527 36 111 4.8 16.1 0.00 0.00 0.00 48 1013.7
20260906182030 36 109 4.8 20.9 0.00 0.00 0.00 48 1013.8
20260906181552 35 0 3.2 20.9 0.00 0.00 0.00 49 1013.8
20260906181031 35 108 6.4 20.9 0.00 0.00 0.00 48 1014.0
20260906180534 36 155 3.2 16.1 0.00 0.00 0.00 48 1014.2
20260906180059 35 91 4.8 16.1 0.00 0.00 0.00 48 1014.1
20260906175529 35 129 3.2 14.5 0.00 0.00 0.00 49 1014.2
20260906175028 35 143 4.8 17.7 0.00 0.00 0.00 48 1014.2
20260906174545 35 0 4.8 17.7 0.00 0.00 0.00 49 1014.3
20260906174028 35 142 3.2 12.9 0.00 0.00 0.00 50 1014.3
20260906173530 35 148 1.6 14.5 0.00 0.00 0.00 50 1014.4
20260906173048 35 79 3.2 16.1 0.00 0.00 0.00 50 1014.6
20260906172530 35 131 3.2 16.1 0.00 0.00 0.00 50 1014.8
20260906172030 35 153 6.4 16.1 0.00 0.00 0.00 49 1014.9
20260906171549 35 166 4.8 12.9 0.00 0.00 0.00 50 1014.9
20260906171033 35 198 4.8 12.9 0.00 0.00 0.00 52 1015.0
20260906170528 35 115 3.2 14.5 0.00 0.00 0.00 51 1015.0
20260906170043 34 151 1.6 14.5 0.00 0.00 0.00 54 1014.9
20260906165529 34 152 4.8 11.3 0.00 0.00 0.00 53 1015.0
20260906165028 34 38 1.6 14.5 0.00 0.00 0.00 53 1015.0
20260906164551 34 61 3.2 14.5 0.00 0.00 0.00 54 1015.1
20260906164028 34 213 3.2 12.9 0.00 0.00 0.00 54 1015.1
20260906163528 33 175 3.2 14.5 0.00 0.00 0.00 54 1015.1
20260906163051 33 67 3.2 14.5 0.00 0.00 0.00 55 1015.1
20260906162532 33 144 1.6 14.5 0.00 0.00 0.00 56 1015.1
20260906162027 33 130 3.2 14.5 0.00 0.00 0.00 56 1014.9
20260906161549 33 100 4.8 14.5 0.00 0.00 0.00 56 1014.9
20260906161028 33 207 4.8 14.5 0.00 0.00 0.00 56 1014.8
20260906160528 33 145 3.2 12.9 0.00 0.00 0.00 58 1014.8
20260906160045 33 143 4.8 12.9 0.00 0.00 0.00 57 1014.8
20260906155529 33 0 1.6 8.0 0.00 0.00 0.00 60 1014.8
20260906155027 32 0 1.6 9.7 0.00 0.00 0.00 60 1014.9
20260906154549 32 28 1.6 12.9 0.00 0.00 0.00 58 1014.7
20260906154027 32 65 1.6 12.9 0.00 0.00 0.00 62 1014.8
20260906153527 32 72 3.2 11.3 0.00 0.00 0.00 62 1014.7
20260906153056 32 175 1.6 8.0 0.00 0.00 0.00 63 1014.6
20260906152531 32 0 1.6 11.3 0.00 0.00 0.00 64 1014.6
20260906152027 32 51 3.2 11.3 0.00 0.00 0.00 65 1014.5
20260906151548 31 0 0.0 11.3 0.00 0.00 0.00 66 1014.5
20260906151030 31 121 0.0 11.3 0.00 0.00 0.00 67 1014.5
20260906150531 31 31 1.6 6.4 0.00 0.00 0.00 67 1014.4
20260906150054 31 0 0.0 6.4 0.00 0.00 0.00 68 1014.5
20260906145528 30 98 1.6 6.4 0.00 0.00 0.00 68 1014.4
20260906145031 30 138 1.6 6.4 0.00 0.00 0.00 69 1014.5
20260906144543 30 101 1.6 6.4 0.00 0.00 0.00 69 1014.6
20260906144027 30 0 1.6 6.4 0.00 0.00 0.00 70 1014.4
20260906143528 30 0 1.6 4.8 0.00 0.00 0.00 71 1014.5
20260906143048 30 68 1.6 6.4 0.00 0.00 0.00 71 1014.5
20260906142534 29 128 1.6 6.4 0.00 0.00 0.00 72 1014.6
20260906142031 29 360 1.6 6.4 0.00 0.00 0.00 73 1014.5
20260906141558 28 140 3.2 6.4 0.00 0.00 0.00 73 1014.4
20260906141028 28 360 1.6 6.4 0.00 0.00 0.00 75 1014.4
20260906140528 28 0 1.6 4.8 0.00 0.00 0.00 75 1014.5
20260906140053 28 360 1.6 4.8 0.00 0.00 0.00 76 1014.5
20260906135528 28 360 0.0 4.8 0.00 0.00 0.00 77 1014.4
20260906135027 27 0 1.6 4.8 0.00 0.00 0.00 78 1014.3
20260906134543 27 360 0.0 4.8 0.00 0.00 0.00 79 1014.3
20260906134028 27 0 0.0 3.2 0.00 0.00 0.00 81 1014.2
20260906133527 27 0 0.0 4.8 0.00 0.00 0.00 82 1014.2
20260906133052 26 0 1.6 4.8 0.00 0.00 0.00 82 1014.2
20260906132527 26 360 1.6 4.8 0.00 0.00 0.00 83 1014.3
20260906132028 26 0 0.0 3.2 0.00 0.00 0.00 84 1014.4
20260906131555 26 0 0.0 3.2 0.00 0.00 0.00 85 1014.4
20260906131028 25 360 0.0 3.2 0.00 0.00 0.00 86 1014.2
20260906130531 25 0 0.0 1.6 0.00 0.00 0.00 86 1014.1
20260906130055 25 0 0.0 1.6 0.00 0.00 0.00 85 1014.1
20260906125528 25 0 0.0 0.0 0.00 0.00 0.00 85 1014.2
20260906125027 25 0 0.0 0.0 0.00 0.00 0.00 85 1014.1
20260906124544 25 0 0.0 0.0 0.00 0.00 0.00 85 1014.2
20260906124031 25 0 0.0 0.0 0.00 0.00 0.00 85 1014.3
20260906123529 25 0 0.0 0.0 0.00 0.00 0.00 84 1014.2
20260906123059 25 0 0.0 0.0 0.00 0.00 0.00 84 1014.2
20260906122531 25 0 0.0 0.0 0.00 0.00 0.00 84 1014.1
20260906122030 25 0 0.0 0.0 0.00 0.00 0.00 84 1014.0
20260906121551 25 0 0.0 0.0 0.00 0.00 0.00 84 1013.9
20260906121029 25 0 0.0 0.0 0.00 0.00 0.00 84 1014.0
20260906120531 25 0 0.0 0.0 0.00 0.00 0.00 84 1013.8
20260906120107 25 0 0.0 1.6 0.00 0.00 0.00 83 1013.7
20260906115530 25 0 0.0 1.6 0.00 0.00 0.00 83 1013.8
20260906115028 25 0 0.0 0.0 0.00 0.00 0.00 83 1013.8
20260906114553 25 0 0.0 0.0 0.00 0.00 0.00 83 1013.7
20260906114031 25 0 0.0 0.0 0.00 0.00 0.00 83 1013.6
20260906113528 25 0 0.0 0.0 0.00 0.00 0.00 82 1013.7
20260906113052 25 0 0.0 0.0 0.00 0.00 0.00 82 1013.6
20260906112528 25 0 0.0 0.0 0.00 0.00 0.00 82 1013.5
20260906112031 25 0 0.0 0.0 0.00 0.00 0.00 82 1013.6
20260906111555 25 0 0.0 0.0 0.00 0.00 0.00 82 1013.4
20260906111031 25 0 0.0 0.0 0.00 0.00 0.00 82 1013.5
20260906110531 25 0 0.0 0.0 0.00 0.00 0.00 82 1013.5
20260906110049 25 0 0.0 0.0 0.00 0.00 0.00 82 1013.4
20260906105528 25 0 0.0 0.0 0.00 0.00 0.00 82 1013.5
20260906105033 25 0 0.0 0.0 0.00 0.00 0.00 81 1013.3
20260906104546 25 0 0.0 0.0 0.00 0.00 0.00 81 1013.2
20260906104031 25 0 0.0 0.0 0.00 0.00 0.00 81 1013.1
20260906103527 25 0 0.0 0.0 0.00 0.00 0.00 81 1013.2
20260906103048 25 0 0.0 0.0 0.00 0.00 0.00 81 1013.2
20260906102533 26 0 0.0 0.0 0.00 0.00 0.00 81 1013.2
20260906102028 26 0 0.0 0.0 0.00 0.00 0.00 81 1013.0
20260906101544 26 0 0.0 0.0 0.00 0.00 0.00 81 1013.0
20260906101032 26 0 0.0 0.0 0.00 0.00 0.00 81 1012.9
20260906100533 26 0 0.0 0.0 0.00 0.00 0.00 81 1012.9
20260906100057 26 0 0.0 0.0 0.00 0.00 0.00 80 1012.9
20260906095529 26 0 0.0 0.0 0.00 0.00 0.00 80 1013.0
20260906095030 26 0 0.0 0.0 0.00 0.00 0.00 80 1012.9
20260906094550 26 0 0.0 0.0 0.00 0.00 0.00 80 1012.9
20260906094028 26 0 0.0 0.0 0.00 0.00 0.00 79 1012.8
20260906093529 26 0 0.0 0.0 0.00 0.00 0.00 79 1012.8
20260906093043 26 0 0.0 0.0 0.00 0.00 0.00 79 1012.7
20260906092529 26 0 0.0 0.0 0.00 0.00 0.00 79 1012.7
20260906092031 26 0 0.0 0.0 0.00 0.00 0.00 79 1012.6
20260906091550 26 0 0.0 1.6 0.00 0.00 0.00 79 1012.5
20260906091030 26 0 0.0 1.6 0.00 0.00 0.00 79 1012.5
20260906090529 26 0 0.0 3.2 0.00 0.00 0.00 79 1012.4
20260906090055 26 157 0.0 3.2 0.00 0.00 0.00 79 1012.5
20260906085529 26 0 0.0 4.8 0.00 0.00 0.00 79 1012.5
20260906085029 26 360 0.0 4.8 0.00 0.00 0.00 79 1012.5
20260906084545 26 360 1.6 4.8 0.00 0.00 0.00 79 1012.6
20260906084029 26 360 1.6 4.8 0.00 0.00 0.00 78 1012.5
20260906083530 26 360 0.0 4.8 0.00 0.00 0.00 78 1012.5
20260906083043 26 360 0.0 6.4 0.00 0.00 0.00 78 1012.5
20260906082528 27 0 0.0 6.4 0.00 0.00 0.00 78 1012.5
20260906082032 27 0 1.6 6.4 0.00 0.00 0.00 78 1012.5
20260906081554 27 360 0.0 4.8 0.00 0.00 0.00 77 1012.4
20260906081030 27 360 0.0 3.2 0.00 0.00 0.00 77 1012.6
20260906080530 27 0 0.0 3.2 0.00 0.00 0.00 77 1012.7
20260906080055 27 0 0.0 3.2 0.00 0.00 0.00 76 1012.7
20260906075528 27 0 0.0 6.4 0.00 0.00 0.00 76 1012.8
20260906075028 27 0 0.0 6.4 0.00 0.00 0.00 76 1012.8
20260906074552 27 0 1.6 6.4 0.00 0.00 0.00 76 1012.8
20260906074028 27 360 0.0 4.8 0.00 0.00 0.00 76 1012.8
20260906073528 27 0 0.0 4.8 0.00 0.00 0.00 75 1012.8
20260906073043 27 0 0.0 3.2 0.00 0.00 0.00 75 1012.8
20260906072532 27 170 0.0 3.2 0.00 0.00 0.00 75 1012.8
20260906072028 27 0 0.0 3.2 0.00 0.00 0.00 74 1012.7
20260906071553 27 0 0.0 4.8 0.00 0.00 0.00 74 1012.7
20260906071029 27 0 0.0 6.4 0.00 0.00 0.00 74 1012.8
20260906070530 27 0 1.6 6.4 0.00 0.00 0.00 74 1012.9
20260906070051 27 171 1.6 4.8 0.00 0.00 0.00 74 1013.0
20260906065528 27 199 1.6 4.8 0.00 0.00 0.00 73 1012.9
20260906065029 27 196 0.0 6.4 0.00 0.00 0.00 73 1012.9
20260906064548 27 196 1.6 6.4 0.00 0.00 0.00 73 1013.1
20260906064028 27 144 1.6 6.4 0.00 0.00 0.00 73 1013.1
20260906063530 28 173 0.0 6.4 0.00 0.00 0.00 72 1013.1
20260906063046 28 0 1.6 8.0 0.00 0.00 0.00 72 1012.9
20260906062527 28 187 1.6 8.0 0.00 0.00 0.00 72 1012.9
20260906062029 28 0 0.0 8.0 0.00 0.00 0.00 71 1012.9
20260906061555 28 211 3.2 9.7 0.00 0.00 0.00 71 1013.0
20260906061028 28 170 3.2 9.7 0.00 0.00 0.00 71 1013.0
20260906060529 28 159 3.2 9.7 0.00 0.00 0.00 70 1013.1
20260906060053 28 146 1.6 9.7 0.00 0.00 0.00 70 1013.0
20260906055528 28 188 3.2 6.4 0.00 0.00 0.00 70 1013.0
20260906055028 28 148 1.6 8.0 0.00 0.00 0.00 69 1012.9
20260906054603 28 152 1.6 8.0 0.00 0.00 0.00 69 1012.9
20260906054028 28 150 1.6 6.4 0.00 0.00 0.00 68 1013.1
20260906053528 28 0 1.6 6.4 0.00 0.00 0.00 68 1013.0
20260906053042 28 0 1.6 6.4 0.00 0.00 0.00 68 1012.9
20260906052529 28 165 1.6 6.4 0.00 0.00 0.00 68 1012.9
20260906052032 28 157 0.0 9.7 0.00 0.00 0.00 67 1012.8
20260906051550 28 198 3.2 9.7 0.00 0.00 0.00 67 1012.8
20260906051032 28 180 3.2 6.4 0.00 0.00 0.00 67 1012.8
20260906050531 28 0 1.6 6.4 0.00 0.00 0.00 67 1012.9
20260906050049 28 161 1.6 6.4 0.00 0.00 0.00 67 1012.8
20260906045532 29 194 0.0 11.3 0.00 0.00 0.00 67 1012.8
20260906045028 29 0 1.6 11.3 0.00 0.00 0.00 66 1012.8
20260906044546 29 142 4.8 11.3 0.00 0.00 0.00 66 1012.8
20260906044031 29 179 1.6 9.7 0.00 0.00 0.00 67 1012.9
20260906043531 29 146 1.6 9.7 0.00 0.00 0.00 67 1012.9
20260906043043 29 192 1.6 11.3 0.00 0.00 0.00 66 1012.9
20260906042527 29 192 3.2 14.5 0.00 0.00 0.00 66 1012.9
20260906042028 29 251 3.2 14.5 0.00 0.00 0.00 66 1013.0
20260906041542 29 155 3.2 11.3 0.00 0.00 0.00 66 1013.0
20260906041028 29 203 1.6 9.7 0.00 0.00 0.00 66 1012.9
20260906040531 29 163 1.6 9.7 0.00 0.00 0.00 66 1013.0
20260906035531 29 184 1.6 9.7 0.00 0.00 0.00 66 1013.0
20260906035031 30 212 1.6 9.7 0.00 0.00 0.00 66 1013.0
20260906034551 30 198 1.6 9.7 0.00 0.00 0.00 65 1013.0
20260906034031 30 140 3.2 9.7 0.00 0.00 0.00 65 1013.0
20260906033530 30 149 1.6 9.7 0.00 0.00 0.00 65 1013.0
20260906033044 30 237 3.2 9.7 0.00 0.00 0.00 65 1012.9
20260906032528 30 195 1.6 6.4 0.00 0.00 0.00 64 1012.9
20260906032034 30 169 1.6 11.3 0.00 0.00 0.00 64 1012.9
20260906031608 30 186 3.2 11.3 0.00 0.00 0.00 64 1013.0
20260906031034 30 244 3.2 9.7 0.00 0.00 0.00 63 1013.0
20260906030532 30 128 1.6 12.9 0.00 0.00 0.00 64 1013.1
20260906030050 30 169 3.2 12.9 0.00 0.00 0.00 63 1013.0
20260906025528 30 120 1.6 12.9 0.00 0.00 0.00 63 1013.0
20260906025032 30 138 3.2 11.3 0.00 0.00 0.00 63 1013.1
20260906024556 30 209 3.2 14.5 0.00 0.00 0.00 62 1013.0
20260906024031 30 201 4.8 14.5 0.00 0.00 0.00 62 1012.9
20260906023530 30 169 3.2 14.5 0.00 0.00 0.00 62 1012.8
20260906023046 30 117 1.6 14.5 0.00 0.00 0.00 61 1012.7
20260906022528 30 117 3.2 14.5 0.00 0.00 0.00 61 1012.7
20260906022029 30 100 3.2 12.9 0.00 0.00 0.00 61 1012.7
20260906021542 30 91 1.6 11.3 0.00 0.00 0.00 61 1012.6
20260906021029 30 0 1.6 9.7 0.00 0.00 0.00 60 1012.5
20260906020531 31 164 1.6 9.7 0.00 0.00 0.00 60 1012.4
20260906020048 31 124 1.6 14.5 0.00 0.00 0.00 60 1012.3
20260906015530 31 126 3.2 14.5 0.00 0.00 0.00 60 1012.3
20260906015032 31 193 3.2 14.5 0.00 0.00 0.00 59 1012.3
20260906014544 31 101 3.2 16.1 0.00 0.00 0.00 59 1012.2
20260906014029 31 186 4.8 16.1 0.00 0.00 0.00 58 1012.3
20260906013529 31 150 1.6 16.1 0.00 0.00 0.00 57 1012.2
20260906013043 31 95 4.8 12.9 0.00 0.00 0.00 57 1012.1
20260906012528 32 120 4.8 16.1 0.00 0.00 0.00 56 1011.9
20260906012028 32 81 4.8 19.3 0.00 0.00 0.00 55 1011.8
20260906011551 32 136 6.4 19.3 0.00 0.00 0.00 54 1011.5
20260906011030 32 163 6.4 27.4 0.00 0.00 0.00 53 1011.6
20260906010529 33 208 6.4 27.4 0.00 0.00 0.00 52 1011.4
20260906010052 33 158 9.7 25.7 0.00 0.00 0.00 51 1011.4
20260906005530 33 203 6.4 17.7 0.00 0.00 0.00 51 1011.3
20260906005029 34 198 1.6 17.7 0.00 0.00 0.00 50 1011.3
20260906004543 34 360 4.8 19.3 0.00 0.00 0.00 49 1011.2
20260906004032 35 360 6.4 19.3 0.00 0.00 0.00 48 1011.2
20260906003528 35 360 3.2 12.9 0.00 0.00 0.00 45 1011.2
20260906003049 35 360 0.0 9.7 0.00 0.00 0.00 45 1011.1
20260906002531 35 117 1.6 11.3 0.00 0.00 0.00 45 1011.2
20260906002028 35 139 1.6 11.3 0.00 0.00 0.00 45 1011.1
20260906001549 36 155 3.2 12.9 0.00 0.00 0.00 44 1011.2
20260906001028 36 157 3.2 14.5 0.00 0.00 0.00 43 1011.1
20260906000529 36 57 3.2 16.1 0.00 0.00 0.00 42 1011.0
20260906000054 36 142 3.2 16.1 0.00 0.00 0.00 42 1011.1
20260905235529 36 60 4.8 17.7 0.00 0.00 0.00 42 1011.1
20260905235031 36 136 1.6 17.7 0.00 0.00 0.00 42 1011.0
20260905234550 36 167 1.6 12.9 0.00 0.00 0.00 41 1010.8
20260905234031 36 0 1.6 12.9 0.00 0.00 0.00 40 1010.9
20260905233530 36 105 1.6 12.9 0.00 0.00 0.00 40 1011.0
20260905233053 37 156 4.8 12.9 0.00 0.00 0.00 39 1011.0